This is the latest recevied weather packets stored in our database for station/object KD8FRE. If no packets are shown the sender has not sent any weather packets the latest 10 day(s).
| Time | Temp. | Humidity | Pressure | Rain* | Wind** | Luminosity | Snow |
|---|---|---|---|---|---|---|---|
| 1777938060 | 21.67° C | 51% | 999.6 hPa | 0 mm | - | 17 W/m² | - |
| 1777937755 | 22.22° C | 48% | 999.6 hPa | 0 mm | - | 17 W/m² | - |
| 1777937452 | 22.78° C | 46% | 999.3 hPa | 0 mm | - | 13 W/m² | - |
| 1777937149 | 22.78° C | 43% | 999.2 hPa | 0 mm | - | 9 W/m² | - |
| 1777936847 | 23.33° C | 43% | 999.3 hPa | 0 mm | - | 21 W/m² | - |
| 1777936543 | 23.33° C | 42% | 999.3 hPa | 0 mm | - | 40 W/m² | - |
| 1777936239 | 23.33° C | 41% | 999.5 hPa | 0 mm | - | 66 W/m² | - |
| 1777935936 | 23.33° C | 42% | 999.3 hPa | 0 mm | - | 41 W/m² | - |
| 1777935635 | 23.33° C | 41% | 999.4 hPa | 0 mm | - | 28 W/m² | - |
| 1777935332 | 23.33° C | 42% | 999.5 hPa | 0 mm | - | 37 W/m² | - |
| 1777935028 | 23.89° C | 40% | 999.3 hPa | 0 mm | - | 47 W/m² | - |
| 1777934725 | 23.89° C | 41% | 999.4 hPa | 0 mm | - | 151 W/m² | - |
| 1777934422 | 23.89° C | 40% | 999.4 hPa | 0 mm | - | 140 W/m² | - |
| 1777934119 | 23.89° C | 40% | 999.4 hPa | 0 mm | - | 161 W/m² | - |
| 1777933815 | 23.89° C | 39% | 999.5 hPa | 0 mm | - | 85 W/m² | - |
| 1777933512 | 23.89° C | 39% | 999.5 hPa | 0 mm | - | 131 W/m² | - |
| 1777933209 | 23.89° C | 40% | 999.7 hPa | 0 mm | - | 85 W/m² | - |
| 1777932907 | 23.89° C | 41% | 999.9 hPa | 0 mm | - | 97 W/m² | - |
| 1777932603 | 23.89° C | 40% | 999.7 hPa | 0 mm | - | 235 W/m² | - |
| 1777932300 | 23.33° C | 41% | 999.8 hPa | 0 mm | - | 199 W/m² | - |
| 1777931996 | 23.33° C | 40% | 1000.1 hPa | 0 mm | - | 74 W/m² | - |
| 1777931693 | 23.33° C | 39% | 1000.1 hPa | 0 mm | - | 256 W/m² | - |
| 1777931390 | 23.33° C | 40% | 1000.3 hPa | 0 mm | - | 82 W/m² | - |
| 1777931086 | 23.89° C | 38% | 1000 hPa | 0 mm | - | 130 W/m² | - |
| 1777930783 | 23.89° C | 38% | 1000.1 hPa | 0 mm | - | 118 W/m² | - |
* Rain latest hour (hover to see other rain measurements)
** Current wind speed in m/s (hover to see current wind gust speed)